Time,TemperatureF,DewpointF,PressureIn,WindDirection,WindDirectionDegrees,WindSpeedMPH,WindSpeedGustMPH,Humidity,HourlyPrecipIn,Conditions,Clouds,dailyrainin,SolarRadiationWatts/m^2,SoftwareType,DateUTC
2013-02-17 00:02:00,28.0,14.0,-100.00,NW,320,6.0,12.0,54,0.00,,,0.00,0.000000,,2013-02-17 05:02:00,
2013-02-17 00:33:00,28.0,14.0,-100.00,NW,320,6.0,12.0,54,0.00,,,0.00,0.000000,,2013-02-17 05:33:00,
2013-02-17 00:42:00,28.0,14.0,-100.00,NW,320,6.0,12.0,54,0.00,,,0.00,0.000000,,2013-02-17 05:42:00,
2013-02-17 00:52:00,28.0,14.0,-100.00,NW,320,6.0,12.0,54,0.00,,,0.00,0.000000,,2013-02-17 05:52:00,
2013-02-17 01:21:00,27.0,11.0,-100.00,NW,325,6.0,10.0,50,0.00,,,0.00,0.000000,,2013-02-17 06:21:00,
2013-02-17 01:32:00,27.0,11.0,-100.00,NW,325,6.0,10.0,50,0.00,,,0.00,0.000000,,2013-02-17 06:32:00,
2013-02-17 01:42:00,27.0,11.0,-100.00,NW,325,6.0,10.0,50,0.00,,,0.00,0.000000,,2013-02-17 06:42:00,
2013-02-17 01:52:00,27.0,11.0,-100.00,NW,325,6.0,10.0,50,0.00,,,0.00,0.000000,,2013-02-17 06:52:00,
2013-02-17 02:01:00,27.0,11.0,-100.00,NW,325,6.0,10.0,50,0.00,,,0.00,0.000000,,2013-02-17 07:01:00,
2013-02-17 02:32:00,26.0,8.0,-100.00,NW,323,5.0,8.0,46,0.00,,,0.00,0.000000,,2013-02-17 07:32:00,
2013-02-17 02:42:00,26.0,8.0,-100.00,NW,323,5.0,8.0,46,0.00,,,0.00,0.000000,,2013-02-17 07:42:00,
2013-02-17 02:52:00,26.0,8.0,-100.00,NW,323,5.0,8.0,46,0.00,,,0.00,0.000000,,2013-02-17 07:52:00,
2013-02-17 03:01:00,26.0,8.0,-100.00,NW,323,5.0,8.0,46,0.00,,,0.00,0.000000,,2013-02-17 08:01:00,
2013-02-17 03:02:00,26.0,5.0,-100.00,NW,321,5.0,10.0,40,0.00,,,0.00,0.000000,,2013-02-17 08:02:00,
2013-02-17 03:32:00,26.0,5.0,-100.00,NW,321,5.0,10.0,40,0.00,,,0.00,0.000000,,2013-02-17 08:32:00,
2013-02-17 03:42:00,26.0,5.0,-100.00,NW,321,5.0,10.0,40,0.00,,,0.00,0.000000,,2013-02-17 08:42:00,
2013-02-17 03:52:00,26.0,5.0,-100.00,NW,321,5.0,10.0,40,0.00,,,0.00,0.000000,,2013-02-17 08:52:00,
2013-02-17 04:21:00,25.0,5.0,-100.00,NW,318,4.0,8.0,42,0.00,,,-99.99,0.000000,,2013-02-17 09:21:00,
2013-02-17 04:32:00,25.0,5.0,-100.00,NW,318,4.0,8.0,42,0.00,,,-99.99,0.000000,,2013-02-17 09:32:00,
2013-02-17 04:42:00,25.0,5.0,-100.00,NW,318,4.0,8.0,42,0.00,,,-99.99,0.000000,,2013-02-17 09:42:00,
2013-02-17 04:52:00,25.0,5.0,-100.00,NW,318,4.0,8.0,42,0.00,,,-99.99,0.000000,,2013-02-17 09:52:00,
2013-02-17 05:01:00,25.0,5.0,-100.00,NW,318,4.0,8.0,42,0.00,,,-99.99,0.000000,,2013-02-17 10:01:00,
2013-02-17 05:32:00,24.0,5.0,-100.00,NW,314,4.0,6.0,43,0.00,,,0.00,0.000000,,2013-02-17 10:32:00,
2013-02-17 05:42:00,24.0,5.0,-100.00,NW,314,4.0,6.0,43,0.00,,,0.00,0.000000,,2013-02-17 10:42:00,
2013-02-17 05:52:00,24.0,5.0,-100.00,NW,314,4.0,6.0,43,0.00,,,0.00,0.000000,,2013-02-17 10:52:00,
2013-02-17 06:01:00,24.0,5.0,-100.00,NW,314,4.0,6.0,43,0.00,,,0.00,0.000000,,2013-02-17 11:01:00,
2013-02-17 06:02:00,24.0,6.0,-100.00,NW,325,4.0,6.0,45,0.00,,,0.00,0.000000,,2013-02-17 11:02:00,
2013-02-17 06:32:00,24.0,6.0,-100.00,NW,325,4.0,6.0,45,0.00,,,0.00,0.000000,,2013-02-17 11:32:00,
2013-02-17 06:42:00,24.0,6.0,-100.00,NW,325,4.0,6.0,45,0.00,,,0.00,0.000000,,2013-02-17 11:42:00,
2013-02-17 06:53:00,24.0,6.0,-100.00,NW,325,4.0,6.0,45,0.00,,,0.00,0.000000,,2013-02-17 11:53:00,
2013-02-17 07:02:00,22.0,8.0,-100.00,WSW,257,3.0,8.0,54,0.00,,,0.00,0.000000,,2013-02-17 12:02:00,
2013-02-17 07:32:00,22.0,8.0,-100.00,WSW,257,3.0,8.0,54,0.00,,,0.00,0.000000,,2013-02-17 12:32:00,
2013-02-17 07:42:00,22.0,8.0,-100.00,WSW,257,3.0,8.0,54,0.00,,,0.00,0.000000,,2013-02-17 12:42:00,
2013-02-17 07:52:00,22.0,8.0,-100.00,WSW,257,3.0,8.0,54,0.00,,,0.00,0.000000,,2013-02-17 12:52:00,
2013-02-17 08:32:00,22.0,8.0,-100.00,West,278,3.0,8.0,53,0.00,,,-99.99,8.000000,,2013-02-17 13:32:00,
2013-02-17 08:42:00,22.0,8.0,-100.00,West,278,3.0,8.0,53,0.00,,,-99.99,8.000000,,2013-02-17 13:42:00,
2013-02-17 08:52:00,22.0,8.0,-100.00,West,278,3.0,8.0,53,0.00,,,-99.99,8.000000,,2013-02-17 13:52:00,
2013-02-17 09:01:00,22.0,8.0,-100.00,West,278,3.0,8.0,53,0.00,,,-99.99,8.000000,,2013-02-17 14:01:00,
2013-02-17 09:02:00,26.0,9.0,-100.00,NW,320,6.0,9.0,47,0.00,,,0.00,65.000000,,2013-02-17 14:02:00,
2013-02-17 09:32:00,26.0,9.0,-100.00,NW,320,6.0,9.0,47,0.00,,,0.00,65.000000,,2013-02-17 14:32:00,
2013-02-17 09:42:00,26.0,9.0,-100.00,NW,320,6.0,9.0,47,0.00,,,0.00,65.000000,,2013-02-17 14:42:00,
2013-02-17 09:53:00,26.0,9.0,-100.00,NW,320,6.0,9.0,47,0.00,,,0.00,65.000000,,2013-02-17 14:53:00,
2013-02-17 10:22:00,31.0,6.0,-100.00,NW,324,7.0,14.0,34,0.00,,,0.00,70.000000,,2013-02-17 15:22:00,
2013-02-17 10:32:00,31.0,6.0,-100.00,NW,324,7.0,14.0,34,0.00,,,0.00,70.000000,,2013-02-17 15:32:00,
2013-02-17 10:42:00,31.0,6.0,-100.00,NW,324,7.0,14.0,34,0.00,,,0.00,70.000000,,2013-02-17 15:42:00,
2013-02-17 10:52:00,31.0,6.0,-100.00,NW,324,7.0,14.0,34,0.00,,,0.00,70.000000,,2013-02-17 15:52:00,
2013-02-17 11:01:00,31.0,6.0,-100.00,NW,324,7.0,14.0,34,0.00,,,0.00,70.000000,,2013-02-17 16:01:00,
2013-02-17 11:02:00,36.0,6.0,-100.00,NW,320,7.0,14.0,28,0.00,,,0.00,479.000000,,2013-02-17 16:02:00,
2013-02-17 11:32:00,36.0,6.0,-100.00,NW,320,7.0,14.0,28,0.00,,,0.00,479.000000,,2013-02-17 16:32:00,
2013-02-17 11:42:00,36.0,6.0,-100.00,NW,320,7.0,14.0,28,0.00,,,0.00,479.000000,,2013-02-17 16:42:00,
2013-02-17 11:52:00,36.0,6.0,-100.00,NW,320,7.0,14.0,28,0.00,,,0.00,479.000000,,2013-02-17 16:52:00,
2013-02-17 12:02:00,40.0,6.0,-100.00,NNW,327,5.0,14.0,24,0.00,,,0.00,733.000000,,2013-02-17 17:02:00,
2013-02-17 12:32:00,40.0,6.0,-100.00,NNW,327,5.0,14.0,24,0.00,,,0.00,733.000000,,2013-02-17 17:32:00,
2013-02-17 12:42:00,40.0,6.0,-100.00,NNW,327,5.0,14.0,24,0.00,,,0.00,733.000000,,2013-02-17 17:42:00,
2013-02-17 12:52:00,40.0,6.0,-100.00,NNW,327,5.0,14.0,24,0.00,,,0.00,733.000000,,2013-02-17 17:52:00,
2013-02-17 13:02:00,43.0,7.0,-100.00,NNW,331,6.0,12.0,22,0.00,,,0.00,796.000000,,2013-02-17 18:02:00,
2013-02-17 13:33:00,43.0,7.0,-100.00,NNW,331,6.0,12.0,22,0.00,,,0.00,796.000000,,2013-02-17 18:33:00,
2013-02-17 13:42:00,43.0,7.0,-100.00,NNW,331,6.0,12.0,22,0.00,,,0.00,796.000000,,2013-02-17 18:42:00,
2013-02-17 13:52:00,43.0,7.0,-100.00,NNW,331,6.0,12.0,22,0.00,,,0.00,796.000000,,2013-02-17 18:52:00,
2013-02-17 14:02:00,44.0,3.0,-100.00,NW,323,7.0,15.0,18,0.00,,,0.00,790.000000,,2013-02-17 19:02:00,
2013-02-17 14:32:00,44.0,3.0,-100.00,NW,323,7.0,15.0,18,0.00,,,0.00,790.000000,,2013-02-17 19:32:00,
2013-02-17 14:42:00,44.0,3.0,-100.00,NW,323,7.0,15.0,18,0.00,,,0.00,790.000000,,2013-02-17 19:42:00,
2013-02-17 14:52:00,44.0,3.0,-100.00,NW,323,7.0,15.0,18,0.00,,,0.00,790.000000,,2013-02-17 19:52:00,
2013-02-17 15:02:00,45.0,7.0,-100.00,NW,320,6.0,14.0,21,0.00,,,0.00,709.000000,,2013-02-17 20:02:00,
2013-02-17 15:32:00,45.0,7.0,-100.00,NW,320,6.0,14.0,21,0.00,,,0.00,709.000000,,2013-02-17 20:32:00,
2013-02-17 15:43:00,45.0,7.0,-100.00,NW,320,6.0,14.0,21,0.00,,,0.00,709.000000,,2013-02-17 20:43:00,
2013-02-17 15:52:00,45.0,7.0,-100.00,NW,320,6.0,14.0,21,0.00,,,0.00,709.000000,,2013-02-17 20:52:00,
2013-02-17 16:32:00,44.0,10.0,-100.00,NNW,334,7.0,14.0,24,0.00,,,0.00,564.000000,,2013-02-17 21:32:00,
2013-02-17 16:42:00,44.0,10.0,-100.00,NNW,334,7.0,14.0,24,0.00,,,0.00,564.000000,,2013-02-17 21:42:00,
2013-02-17 16:53:00,44.0,10.0,-100.00,NNW,334,7.0,14.0,24,0.00,,,0.00,564.000000,,2013-02-17 21:53:00,
2013-02-17 17:01:00,44.0,10.0,-100.00,NNW,334,7.0,14.0,24,0.00,,,0.00,564.000000,,2013-02-17 22:01:00,
2013-02-17 17:02:00,41.0,9.0,-100.00,WNW,300,5.0,11.0,26,0.00,,,0.00,177.000000,,2013-02-17 22:02:00,
2013-02-17 17:32:00,41.0,9.0,-100.00,WNW,300,5.0,11.0,26,0.00,,,0.00,177.000000,,2013-02-17 22:32:00,
2013-02-17 17:42:00,41.0,9.0,-100.00,WNW,300,5.0,11.0,26,0.00,,,0.00,177.000000,,2013-02-17 22:42:00,
2013-02-17 17:52:00,41.0,9.0,-100.00,WNW,300,5.0,11.0,26,0.00,,,0.00,177.000000,,2013-02-17 22:52:00,
2013-02-17 18:02:00,39.0,10.0,-100.00,NW,316,5.0,10.0,30,0.00,,,0.00,20.000000,,2013-02-17 23:02:00,
2013-02-17 18:32:00,39.0,10.0,-100.00,NW,316,5.0,10.0,30,0.00,,,0.00,20.000000,,2013-02-17 23:32:00,
2013-02-17 18:42:00,39.0,10.0,-100.00,NW,316,5.0,10.0,30,0.00,,,0.00,20.000000,,2013-02-17 23:42:00,
2013-02-17 18:52:00,39.0,10.0,-100.00,NW,316,5.0,10.0,30,0.00,,,0.00,20.000000,,2013-02-17 23:52:00,
2013-02-17 19:32:00,36.0,10.0,-100.00,NW,313,2.0,7.0,34,0.00,,,0.00,3.000000,,2013-02-18 00:32:00,
2013-02-17 19:42:00,36.0,10.0,-100.00,NW,313,2.0,7.0,34,0.00,,,0.00,3.000000,,2013-02-18 00:42:00,
2013-02-17 19:52:00,36.0,10.0,-100.00,NW,313,2.0,7.0,34,0.00,,,0.00,3.000000,,2013-02-18 00:52:00,
2013-02-17 20:01:00,36.0,10.0,-100.00,NW,313,2.0,7.0,34,0.00,,,0.00,3.000000,,2013-02-18 01:01:00,
2013-02-17 20:02:00,35.0,11.0,-100.00,SW,234,1.0,4.0,36,0.00,,,0.00,0.000000,,2013-02-18 01:02:00,
2013-02-17 20:21:00,35.0,11.0,-100.00,SW,234,1.0,4.0,36,0.00,,,0.00,0.000000,,2013-02-18 01:21:00,
2013-02-17 20:32:00,35.0,11.0,-100.00,SW,234,1.0,4.0,36,0.00,,,0.00,0.000000,,2013-02-18 01:32:00,
2013-02-17 20:42:00,35.0,11.0,-100.00,SW,234,1.0,4.0,36,0.00,,,0.00,0.000000,,2013-02-18 01:42:00,
2013-02-17 20:52:00,35.0,11.0,-100.00,SW,234,1.0,4.0,36,0.00,,,0.00,0.000000,,2013-02-18 01:52:00,
2013-02-17 21:02:00,32.0,10.0,-100.00,WSW,258,1.0,3.0,40,0.00,,,0.00,0.000000,,2013-02-18 02:02:00,
2013-02-17 21:22:00,32.0,10.0,-100.00,WSW,258,1.0,3.0,40,0.00,,,0.00,0.000000,,2013-02-18 02:22:00,
2013-02-17 21:32:00,32.0,10.0,-100.00,WSW,258,1.0,3.0,40,0.00,,,0.00,0.000000,,2013-02-18 02:32:00,
2013-02-17 21:42:00,32.0,10.0,-100.00,WSW,258,1.0,3.0,40,0.00,,,0.00,0.000000,,2013-02-18 02:42:00,
2013-02-17 21:52:00,32.0,10.0,-100.00,WSW,258,1.0,3.0,40,0.00,,,0.00,0.000000,,2013-02-18 02:52:00,
2013-02-17 22:32:00,29.0,12.0,-100.00,NW,319,1.0,2.0,48,0.00,,,0.00,0.000000,,2013-02-18 03:32:00,
2013-02-17 22:42:00,29.0,12.0,-100.00,NW,319,1.0,2.0,48,0.00,,,0.00,0.000000,,2013-02-18 03:42:00,
2013-02-17 22:52:00,29.0,12.0,-100.00,NW,319,1.0,2.0,48,0.00,,,0.00,0.000000,,2013-02-18 03:52:00,
2013-02-17 23:01:00,29.0,12.0,-100.00,NW,319,1.0,2.0,48,0.00,,,0.00,0.000000,,2013-02-18 04:01:00,
2013-02-17 23:02:00,30.0,11.0,-100.00,NNE,17,1.0,2.0,45,0.00,,,0.00,0.000000,,2013-02-18 04:02:00,
2013-02-17 23:22:00,30.0,11.0,-100.00,NNE,17,1.0,2.0,45,0.00,,,0.00,0.000000,,2013-02-18 04:22:00,
2013-02-17 23:32:00,30.0,11.0,-100.00,NNE,17,1.0,2.0,45,0.00,,,0.00,0.000000,,2013-02-18 04:32:00,
2013-02-17 23:42:00,30.0,11.0,-100.00,NNE,17,1.0,2.0,45,0.00,,,0.00,0.000000,,2013-02-18 04:42:00,
2013-02-17 23:52:00,30.0,11.0,-100.00,NNE,17,1.0,2.0,45,0.00,,,0.00,0.000000,,2013-02-18 04:52:00,